Weather History for KHON - August, 2013

Change the Weather History Date:

Sunday, August 4, 2013

  Actual Average Record
Temperature  
Mean Temperature 66 °F 73 °F  
Max Temperature 74 °F 86 °F 110 °F (1934)
Min Temperature 58 °F 61 °F 40 °F (1974)
Degree Days  
Heating Degree Days 0 0  
Month to date heating degree days 0 0  
Since 1 June heating degree days 87 59  
Since 1 July heating degree days 21 8  
Cooling Degree Days 1 9  
Month to date cooling degree days 6 36  
Year to date cooling degree days 434 479  
Since 1 June cooling degree days 396 446  
Growing Degree Days 15 (Base 50)    
Moisture  
Dew Point 58 °F    
Average Humidity 75    
Maximum Humidity 93    
Minimum Humidity 57    
Precipitation  
Precipitation 0.14 in 0.09 in 1.74 in (1995)
Month to date precipitation 0.23 0.40  
Year to date precipitation 16.21 15.23  
Snow  
Snow 0.00 in 0.00 in 0.00 in ()
Month to date snowfall 0.0 0.0  
Since 1 June snowfall 0.0 0.0  
Since 1 July snowfall 0.0 0.0  
Snow Depth 0.00 in    
Sea Level Pressure  
Sea Level Pressure 30.08 in    
Wind  
Wind Speed 6 mph (SE)    
Max Wind Speed 13 mph    
Max Gust Speed 20 mph    
Visibility 10 miles    
Events Rain , Thunderstorm    
T = Trace of Precipitation, MM = Missing Value Source: NWS Daily Summary

Daily Weather History Graph

Daily Weather History Graph

Search for Another Location

Airport or City:

Trip Planner

Search our weather history database for the weather conditions in past years. The results will help you decide how hot, cold, wet, or windy it might be!

Date:

Astronomy

Aug. 04, 2013 Rise Set
Actual Time 6:23 AM CDT 8:53 PM CDT
Civil Twilight 5:50 AM CDT 9:26 PM CDT
Nautical Twilight 5:09 AM CDT 10:07 PM CDT
Astronomical Twilight 4:23 AM CDT 10:53 PM CDT
Moon 4:25 AM CDT (8/4) 7:17 PM CDT (8/4)
Length of Visible Light 15h 35m
Length of Day
14h 29m
Waning Crescent, 4% of the Moon is Illuminated
Aug 4
Waning Crescent
Aug 6
New
Aug 14
First Quarter
Aug 20
Full
Aug 28
Last Quarter

Hourly Weather History & Observations

Time (CDT) Temp. Dew Point Humidity Pressure Visibility Wind Dir Wind Speed Gust Speed Precip Events Conditions
12:55 AM 63.0 °F 55.9 °F 78% 30.22 in 10.0 mi ESE 6.9 mph - N/A   Clear
1:55 AM 61.0 °F 55.9 °F 83% 30.19 in 10.0 mi SSE 5.8 mph - N/A   Clear
2:55 AM 59.0 °F 55.0 °F 87% 30.16 in 10.0 mi ESE 6.9 mph - N/A   Clear
3:41 AM 60.8 °F 55.4 °F 82% 30.17 in 10.0 mi East 5.8 mph - N/A Thunderstorm Clear
3:55 AM 61.0 °F 55.0 °F 81% 30.16 in 10.0 mi ESE 4.6 mph - N/A Thunderstorm Clear
4:18 AM 60.8 °F 55.4 °F 82% 30.19 in 10.0 mi NE 3.5 mph - 0.00 in   Scattered Clouds
4:55 AM 60.1 °F 55.9 °F 86% 30.16 in 10.0 mi Calm Calm - 0.00 in Rain Light Rain
5:55 AM 59.0 °F 55.0 °F 87% 30.19 in 9.0 mi SSE 4.6 mph - 0.02 in Rain Light Rain
6:55 AM 57.9 °F 55.0 °F 90% 30.14 in 6.0 mi SE 8.1 mph 18.4 mph 0.10 in Rain Light Rain
7:55 AM 59.0 °F 53.1 °F 81% 30.14 in 10.0 mi SSE 9.2 mph - 0.00 in   Overcast
8:55 AM 62.1 °F 53.1 °F 72% 30.18 in 10.0 mi South 4.6 mph - N/A   Mostly Cloudy
9:05 AM 62.6 °F 53.6 °F 72% 30.19 in 10.0 mi South 6.9 mph - N/A Thunderstorm Mostly Cloudy
9:37 AM 62.6 °F 53.6 °F 72% 30.18 in 10.0 mi South 5.8 mph - 0.00 in Rain Light Rain
9:55 AM 60.1 °F 55.0 °F 83% 30.12 in 10.0 mi SE 9.2 mph - 0.01 in Rain Light Rain
10:55 AM 64.9 °F 57.0 °F 75% 30.13 in 10.0 mi ESE 9.2 mph - 0.00 in   Clear
11:55 AM 68.0 °F 57.9 °F 70% 30.11 in 10.0 mi SSE 9.2 mph - N/A   Clear
12:55 PM 70.0 °F 59.0 °F 68% 30.09 in 10.0 mi SE 5.8 mph - N/A   Clear
1:55 PM 73.0 °F 57.9 °F 59% 30.07 in 10.0 mi SE 11.5 mph 18.4 mph N/A   Mostly Cloudy
2:55 PM 71.1 °F 57.9 °F 63% 30.07 in 10.0 mi South 8.1 mph - N/A   Overcast
3:55 PM 71.1 °F 60.1 °F 68% 30.04 in 10.0 mi SSE 6.9 mph - 0.00 in Rain Light Rain
4:55 PM 71.1 °F 60.1 °F 68% 30.03 in 10.0 mi SSE 6.9 mph - 0.00 in   Overcast
5:55 PM 71.1 °F 60.1 °F 68% 30.01 in 10.0 mi SE 4.6 mph - N/A   Overcast
6:55 PM 71.1 °F 61.0 °F 70% 29.99 in 10.0 mi SE 4.6 mph - N/A   Overcast
7:07 PM 71.6 °F 60.8 °F 69% 29.99 in 10.0 mi SE 6.9 mph - N/A   Overcast
7:30 PM 71.6 °F 62.6 °F 73% 29.98 in 10.0 mi ESE 8.1 mph - N/A   Overcast
7:55 PM 71.1 °F 61.0 °F 70% 29.97 in 10.0 mi SE 6.9 mph - N/A   Overcast
8:23 PM 69.8 °F 62.6 °F 78% 29.97 in 10.0 mi ESE 5.8 mph - 0.00 in   Overcast
8:55 PM 69.1 °F 62.1 °F 78% 29.96 in 10.0 mi ESE 4.6 mph - 0.00 in   Overcast
9:15 PM 69.8 °F 62.6 °F 78% 29.97 in 10.0 mi SE 3.5 mph - 0.00 in Rain Light Rain
9:55 PM 68.0 °F 64.9 °F 90% 29.96 in 10.0 mi SE 5.8 mph - 0.01 in   Overcast
10:55 PM 70.0 °F 64.9 °F 84% 29.95 in 10.0 mi South 4.6 mph - N/A   Mostly Cloudy
11:55 PM 71.1 °F 64.9 °F 81% 29.94 in 10.0 mi South 6.9 mph - N/A   Overcast